TITAN 3C TRANSTAGE DEB, 26527

Orbit data source: Space-Track

TITAN 3C TRANSTAGE DEB, 26527 is space debris in HEO originally from a launch on Tue, 21 Dec 1965 UTC launched from the Air Force Eastern Test Range (AFETR). Debris objects in space refer to the collection of defunct objects orbiting the Earth. Examples of debris include non-operational satellites, rocket bodies, and fragments generated from explosions, collisions, or faulty payload assembly.

Loading next visibility...
Identifier
26527, 1965-108AN
Orbit
HEO
Country
Flag of USUS
Related business
Manufacturer
Unknown
Mission
Spacecraft
Bus & Motor
Unknown
Mass
Unknown
Launch date (UTC)
1965-12-21 (61 years ago)
Launch vehicle
Unknown
Launch site
Air Force Eastern Test Range (AFETR)
Object type
Payload
Rocket body
Debris
Shape & HBR
Unknown shape, 0.1 m
Radar Cross Section
Medium (>0.1 m² and <1 m²)

Expand to show TLE details & history
Last TLE update: 2 months ago

TLE from 2 months ago
0 TITAN 3C TRANSTAGE DEB
1 26527U 65108AN  26205.55765199  .00000126  00000-0  28561-2 0  9997
2 26527  26.8704 287.8252 6784779 198.8888 348.7043  2.71525473270816
Epoch: 2026-07-24T13:23Z
TLE epoch observation values (Epoch: 2026-07-24T13:23:01.131Z)
Latitude
19.44199°
Longitude
-79.03725°
Altitude
2,783.425 km
Speed
8.286 km/s
True Right ascension
04h 16m 00s
True Declination
19° 21' 29"
Sunlit
Object was in daylight at epoch
Visualization orbit readout
Latitude
Unknown
Longitude
Unknown
Altitude
Unknown
Speed
Unknown
Apparent Right ascension
Unknown
Apparent Declination
Unknown
Sunlit
N/A
Visualization observer readout
Local Sidereal Time
11:03:22
Azimuth
Unknown
Elevation
Unknown
Doppler factor
Unknown
Orbital elements
Apogee altitude
30,056.551 km
Perigee altitude
601.137 km
Semi-major axis
21,706.981 km
Eccentricity
0.67848
Inclination
26.8704°
RAAN
287.8252°
Arg. of periapsis
198.8888°
True anomaly
293.96374°
Mean anomaly
348.7043°
Eccentric anomaly
328.24599°
Mean motion
0.67865 °/min
Orbital period
530.47 mins
BSTAR
0.0028561
Loading maneuver chart data...
Computing Atmospheric mass density...

Documentation

Showing up to 5 results
|